TimeMST,TemperatureF,Dew PointF,Humidity,Sea Level PressureIn,VisibilityMPH,Wind Direction,Wind SpeedMPH,Gust SpeedMPH,PrecipitationIn,Events,Conditions,WindDirDegrees,DateUTC
12:53 AM,17.1,14.0,88,30.11,10.0,Calm,Calm,-,N/A,,Scattered Clouds,0,2012-12-11 07:53:00
1:53 AM,10.0,7.0,87,30.12,10.0,Calm,Calm,-,N/A,,Clear,0,2012-12-11 08:53:00
2:53 AM,10.9,9.0,92,30.09,10.0,SW,6.9,-,N/A,,Mostly Cloudy,230,2012-12-11 09:53:00
3:53 AM,12.0,10.9,95,30.07,10.0,Calm,Calm,-,N/A,,Mostly Cloudy,0,2012-12-11 10:53:00
4:53 AM,7.0,5.0,92,30.08,10.0,South,4.6,-,N/A,,Partly Cloudy,180,2012-12-11 11:53:00
5:53 AM,7.0,3.9,87,30.07,10.0,Calm,Calm,-,N/A,,Clear,0,2012-12-11 12:53:00
6:53 AM,6.1,3.0,87,30.06,10.0,SSW,6.9,-,N/A,,Clear,210,2012-12-11 13:53:00
7:53 AM,6.1,3.0,87,30.04,10.0,South,5.8,-,N/A,,Clear,190,2012-12-11 14:53:00
8:53 AM,10.0,8.1,92,30.01,10.0,Calm,Calm,-,N/A,,Clear,0,2012-12-11 15:53:00
9:53 AM,12.9,10.0,88,29.97,10.0,SSW,3.5,-,N/A,,Clear,200,2012-12-11 16:53:00
10:53 AM,15.1,10.9,84,29.94,10.0,WSW,4.6,-,N/A,,Clear,240,2012-12-11 17:53:00
11:53 AM,19.9,14.0,78,29.89,10.0,Calm,Calm,-,N/A,,Clear,0,2012-12-11 18:53:00
12:53 PM,25.0,17.1,72,29.85,10.0,NW,3.5,-,N/A,,Clear,320,2012-12-11 19:53:00
1:53 PM,27.0,18.0,69,29.84,10.0,Calm,Calm,-,N/A,,Clear,0,2012-12-11 20:53:00
2:53 PM,28.0,19.0,69,29.81,10.0,Calm,Calm,-,N/A,,Clear,0,2012-12-11 21:53:00
3:53 PM,26.1,19.0,75,29.81,10.0,North,3.5,-,N/A,,Clear,10,2012-12-11 22:53:00
4:53 PM,21.9,17.1,82,29.82,10.0,WNW,3.5,-,N/A,,Clear,290,2012-12-11 23:53:00
5:53 PM,19.0,15.1,85,29.84,10.0,Calm,Calm,-,N/A,,Clear,0,2012-12-12 00:53:00
6:53 PM,19.9,16.0,85,29.83,10.0,Calm,Calm,-,N/A,,Mostly Cloudy,0,2012-12-12 01:53:00
7:53 PM,21.9,17.1,82,29.81,10.0,NE,3.5,-,N/A,,Mostly Cloudy,50,2012-12-12 02:53:00
8:53 PM,23.0,17.1,78,29.79,10.0,South,3.5,-,N/A,,Clear,190,2012-12-12 03:53:00
9:53 PM,23.0,18.0,81,29.78,10.0,South,3.5,-,N/A,,Partly Cloudy,170,2012-12-12 04:53:00
10:53 PM,21.0,17.1,85,29.77,10.0,Calm,Calm,-,N/A,,Clear,0,2012-12-12 05:53:00
11:53 PM,21.0,17.1,85,29.74,10.0,SE,3.5,-,N/A,,Clear,140,2012-12-12 06:53:00